| time (UTC) | temp F | wind direction | speed MPH | gust MPH | rain 1hr in | rain 24hr in | rain mn in | humidity % | barometer mb |
| 20260902232608 | 99 | 40 | 4.0 | 6.0 | 0.00 | 0.00 | 0.00 | 37 | 1013.5 |
| 20260902232102 | 99 | 256 | 1.0 | 8.0 | 0.00 | 0.00 | 0.00 | 36 | 1013.5 |
| 20260902231601 | 99 | 180 | 1.0 | 7.0 | 0.00 | 0.00 | 0.00 | 36 | 1013.4 |
| 20260902231056 | 99 | 183 | 0.0 | 4.0 | 0.00 | 0.00 | 0.00 | 36 | 1013.5 |
| 20260902230551 | 99 | 42 | 2.0 | 2.0 | 0.00 | 0.00 | 0.00 | 36 | 1013.6 |
| 20260902230050 | 100 | 253 | 4.0 | 7.0 | 0.00 | 0.00 | 0.00 | 35 | 1013.6 |
| 20260902225546 | 100 | 87 | 0.0 | 4.0 | 0.00 | 0.00 | 0.00 | 35 | 1013.5 |
| 20260902225044 | 100 | 64 | 1.0 | 3.0 | 0.00 | 0.00 | 0.00 | 34 | 1013.7 |
| 20260902224543 | 100 | 312 | 3.0 | 8.0 | 0.00 | 0.00 | 0.00 | 35 | 1013.6 |
| 20260902224039 | 101 | 253 | 3.0 | 4.0 | 0.00 | 0.00 | 0.00 | 35 | 1013.6 |
| 20260902223535 | 101 | 358 | 2.0 | 3.0 | 0.00 | 0.00 | 0.00 | 34 | 1013.5 |
| 20260902223034 | 102 | 44 | 1.0 | 3.0 | 0.00 | 0.00 | 0.00 | 34 | 1013.6 |
| 20260902222533 | 102 | 310 | 1.0 | 4.0 | 0.00 | 0.00 | 0.00 | 33 | 1013.7 |
| 20260902222033 | 101 | 15 | 4.0 | 7.0 | 0.00 | 0.00 | 0.00 | 33 | 1013.9 |
| 20260902221533 | 101 | 291 | 1.0 | 1.0 | 0.00 | 0.00 | 0.00 | 34 | 1013.9 |
| 20260902221027 | 103 | 342 | 0.0 | 2.0 | 0.00 | 0.00 | 0.00 | 33 | 1013.7 |
| 20260902220523 | 101 | 74 | 2.0 | 7.0 | 0.00 | 0.00 | 0.00 | 33 | 1013.7 |
| 20260902220017 | 103 | 272 | 2.0 | 3.0 | 0.00 | 0.00 | 0.00 | 32 | 1013.7 |
| 20260902215514 | 103 | 238 | 3.0 | 4.0 | 0.00 | 0.00 | 0.00 | 33 | 1013.8 |
| 20260902215009 | 102 | 273 | 2.0 | 7.0 | 0.00 | 0.00 | 0.00 | 34 | 1013.8 |
| 20260902214508 | 102 | 299 | 1.0 | 6.0 | 0.00 | 0.00 | 0.00 | 35 | 1014.0 |
| 20260902214007 | 102 | 38 | 3.0 | 3.0 | 0.00 | 0.00 | 0.00 | 35 | 1014.0 |
| 20260902213503 | 101 | 308 | 1.0 | 4.0 | 0.00 | 0.00 | 0.00 | 36 | 1014.0 |
| 20260902213002 | 100 | 266 | 2.0 | 8.0 | 0.00 | 0.00 | 0.00 | 36 | 1013.9 |
| 20260902212458 | 100 | 273 | 6.0 | 9.0 | 0.00 | 0.00 | 0.00 | 35 | 1014.1 |
| 20260902211954 | 99 | 17 | 1.0 | 4.0 | 0.00 | 0.00 | 0.00 | 37 | 1014.3 |
| 20260902211450 | 100 | 263 | 5.0 | 8.0 | 0.00 | 0.00 | 0.00 | 37 | 1014.3 |
| 20260902210945 | 102 | 28 | 2.0 | 6.0 | 0.00 | 0.00 | 0.00 | 36 | 1014.4 |
| 20260902210440 | 101 | 48 | 1.0 | 8.0 | 0.00 | 0.00 | 0.00 | 35 | 1014.3 |
| 20260902205938 | 99 | 28 | 3.0 | 6.0 | 0.00 | 0.00 | 0.00 | 37 | 1014.4 |
| 20260902205433 | 101 | 57 | 4.0 | 9.0 | 0.00 | 0.00 | 0.00 | 37 | 1014.6 |
| 20260902204929 | 102 | 126 | 3.0 | 11.0 | 0.00 | 0.00 | 0.00 | 36 | 1014.4 |
| 20260902204428 | 102 | 19 | 4.0 | 6.0 | 0.00 | 0.00 | 0.00 | 35 | 1014.5 |
| 20260902203924 | 101 | 269 | 5.0 | 6.0 | 0.00 | 0.00 | 0.00 | 34 | 1014.6 |
| 20260902203419 | 100 | 79 | 1.0 | 4.0 | 0.00 | 0.00 | 0.00 | 35 | 1014.6 |
| 20260902202918 | 101 | 132 | 2.0 | 4.0 | 0.00 | 0.00 | 0.00 | 34 | 1014.7 |
| 20260902202414 | 101 | 42 | 5.0 | 7.0 | 0.00 | 0.00 | 0.00 | 36 | 1014.6 |
| 20260902201911 | 99 | 58 | 1.0 | 6.0 | 0.00 | 0.00 | 0.00 | 39 | 1015.0 |
| 20260902201411 | 101 | 294 | 3.0 | 4.0 | 0.00 | 0.00 | 0.00 | 37 | 1015.1 |
| 20260902200906 | 102 | 34 | 3.0 | 6.0 | 0.00 | 0.00 | 0.00 | 36 | 1014.9 |
| 20260902200401 | 102 | 23 | 3.0 | 6.0 | 0.00 | 0.00 | 0.00 | 37 | 1015.1 |
| 20260902195856 | 101 | 137 | 1.0 | 4.0 | 0.00 | 0.00 | 0.00 | 38 | 1015.0 |
| 20260902195356 | 101 | 248 | 4.0 | 6.0 | 0.00 | 0.00 | 0.00 | 37 | 1015.1 |
| 20260902194851 | 101 | 56 | 4.0 | 6.0 | 0.00 | 0.00 | 0.00 | 37 | 1015.5 |
| 20260902194345 | 101 | 252 | 4.0 | 4.0 | 0.00 | 0.00 | 0.00 | 37 | 1015.4 |
| 20260902193840 | 101 | 36 | 2.0 | 7.0 | 0.00 | 0.00 | 0.00 | 38 | 1015.5 |
| 20260902193336 | 102 | 252 | 2.0 | 7.0 | 0.00 | 0.00 | 0.00 | 37 | 1015.6 |
| 20260902192835 | 101 | 153 | 1.0 | 3.0 | 0.00 | 0.00 | 0.00 | 39 | 1015.6 |
| 20260902192333 | 100 | 334 | 2.0 | 4.0 | 0.00 | 0.00 | 0.00 | 40 | 1015.7 |
| 20260902191828 | 101 | 174 | 0.0 | 1.0 | 0.00 | 0.00 | 0.00 | 38 | 1015.7 |
| 20260902191324 | 101 | 214 | 1.0 | 6.0 | 0.00 | 0.00 | 0.00 | 39 | 1015.9 |
| 20260902190819 | 100 | 222 | 4.0 | 4.0 | 0.00 | 0.00 | 0.00 | 39 | 1015.9 |
| 20260902190318 | 99 | 36 | 1.0 | 3.0 | 0.00 | 0.00 | 0.00 | 41 | 1015.8 |
| 20260902185814 | 100 | 263 | 1.0 | 4.0 | 0.00 | 0.00 | 0.00 | 39 | 1015.9 |
| 20260902185309 | 100 | 305 | 3.0 | 4.0 | 0.00 | 0.00 | 0.00 | 39 | 1016.2 |
| 20260902184805 | 100 | 288 | 2.0 | 4.0 | 0.00 | 0.00 | 0.00 | 39 | 1016.1 |
| 20260902184300 | 100 | 340 | 0.0 | 3.0 | 0.00 | 0.00 | 0.00 | 39 | 1016.2 |
| 20260902183755 | 100 | 51 | 0.0 | 6.0 | 0.00 | 0.00 | 0.00 | 39 | 1016.4 |
| 20260902183252 | 100 | 269 | 2.0 | 4.0 | 0.00 | 0.00 | 0.00 | 39 | 1016.5 |
| 20260902182748 | 99 | 237 | 2.0 | 4.0 | 0.00 | 0.00 | 0.00 | 39 | 1016.8 |
| 20260902182244 | 99 | 215 | 1.0 | 4.0 | 0.00 | 0.00 | 0.00 | 40 | 1016.5 |
| 20260902181740 | 99 | 281 | 4.0 | 8.0 | 0.00 | 0.00 | 0.00 | 40 | 1016.7 |
| 20260902181240 | 98 | 19 | 4.0 | 8.0 | 0.00 | 0.00 | 0.00 | 40 | 1016.8 |
| 20260902180735 | 99 | 57 | 2.0 | 4.0 | 0.00 | 0.00 | 0.00 | 40 | 1016.8 |
| 20260902180230 | 99 | 217 | 3.0 | 7.0 | 0.00 | 0.00 | 0.00 | 40 | 1016.9 |
| 20260902175724 | 98 | 161 | 2.0 | 6.0 | 0.00 | 0.00 | 0.00 | 41 | 1017.2 |
| 20260902175221 | 99 | 76 | 1.0 | 6.0 | 0.00 | 0.00 | 0.00 | 42 | 1017.2 |
| 20260902174716 | 99 | 310 | 5.0 | 7.0 | 0.00 | 0.00 | 0.00 | 40 | 1017.3 |
| 20260902174212 | 98 | 257 | 3.0 | 6.0 | 0.00 | 0.00 | 0.00 | 42 | 1017.3 |
| 20260902173708 | 98 | 83 | 3.0 | 6.0 | 0.00 | 0.00 | 0.00 | 42 | 1017.2 |
| 20260902173202 | 97 | 301 | 4.0 | 8.0 | 0.00 | 0.00 | 0.00 | 42 | 1017.5 |
| 20260902172657 | 96 | 266 | 4.0 | 11.0 | 0.00 | 0.00 | 0.00 | 43 | 1017.5 |
| 20260902172156 | 97 | 301 | 1.0 | 6.0 | 0.00 | 0.00 | 0.00 | 43 | 1017.8 |
| 20260902171651 | 97 | 237 | 2.0 | 7.0 | 0.00 | 0.00 | 0.00 | 43 | 1017.5 |
| 20260902171147 | 98 | 262 | 2.0 | 4.0 | 0.00 | 0.00 | 0.00 | 43 | 1017.8 |
| 20260902170643 | 97 | 232 | 2.0 | 3.0 | 0.00 | 0.00 | 0.00 | 44 | 1017.8 |
| 20260902170137 | 96 | 328 | 4.0 | 7.0 | 0.00 | 0.00 | 0.00 | 44 | 1017.8 |
| 20260902165633 | 97 | 259 | 3.0 | 4.0 | 0.00 | 0.00 | 0.00 | 44 | 1017.9 |
| 20260902165127 | 95 | 312 | 0.0 | 4.0 | 0.00 | 0.00 | 0.00 | 47 | 1018.0 |
| 20260902164622 | 96 | 232 | 2.0 | 4.0 | 0.00 | 0.00 | 0.00 | 45 | 1017.9 |
| 20260902164121 | 95 | 246 | 3.0 | 7.0 | 0.00 | 0.00 | 0.00 | 46 | 1018.1 |
| 20260902163617 | 96 | 190 | 4.0 | 7.0 | 0.00 | 0.00 | 0.00 | 45 | 1018.1 |
| 20260902163115 | 96 | 251 | 1.0 | 4.0 | 0.00 | 0.00 | 0.00 | 46 | 1018.1 |
| 20260902162614 | 94 | 222 | 0.0 | 6.0 | 0.00 | 0.00 | 0.00 | 47 | 1018.2 |
| 20260902162109 | 94 | 40 | 1.0 | 4.0 | 0.00 | 0.00 | 0.00 | 47 | 1018.1 |
| 20260902161605 | 94 | 71 | 4.0 | 6.0 | 0.00 | 0.00 | 0.00 | 48 | 1018.1 |
| 20260902161101 | 95 | 359 | 0.0 | 4.0 | 0.00 | 0.00 | 0.00 | 47 | 1018.1 |
| 20260902160556 | 94 | 216 | 0.0 | 3.0 | 0.00 | 0.00 | 0.00 | 48 | 1017.9 |
| 20260902160051 | 94 | 267 | 2.0 | 4.0 | 0.00 | 0.00 | 0.00 | 48 | 1018.0 |
| 20260902155544 | 94 | 263 | 3.0 | 6.0 | 0.00 | 0.00 | 0.00 | 49 | 1018.1 |
| 20260902155043 | 92 | 179 | 2.0 | 3.0 | 0.00 | 0.00 | 0.00 | 50 | 1018.2 |
| 20260902154539 | 92 | 202 | 2.0 | 7.0 | 0.00 | 0.00 | 0.00 | 51 | 1017.9 |
| 20260902154039 | 92 | 167 | 2.0 | 4.0 | 0.00 | 0.00 | 0.00 | 51 | 1018.1 |
| 20260902153537 | 92 | 197 | 3.0 | 7.0 | 0.00 | 0.00 | 0.00 | 50 | 1018.2 |
| 20260902153033 | 91 | 233 | 4.0 | 6.0 | 0.00 | 0.00 | 0.00 | 52 | 1018.2 |
| 20260902152529 | 91 | 175 | 5.0 | 7.0 | 0.00 | 0.00 | 0.00 | 52 | 1018.2 |
| 20260902152024 | 90 | 254 | 1.0 | 8.0 | 0.00 | 0.00 | 0.00 | 53 | 1018.2 |
| 20260902151520 | 90 | 229 | 3.0 | 10.0 | 0.00 | 0.00 | 0.00 | 53 | 1018.2 |
| 20260902151019 | 90 | 230 | 1.0 | 11.0 | 0.00 | 0.00 | 0.00 | 53 | 1018.1 |
| 20260902150515 | 89 | 262 | 4.0 | 8.0 | 0.00 | 0.00 | 0.00 | 54 | 1018.4 |
| 20260902150010 | 90 | 333 | 2.0 | 8.0 | 0.00 | 0.00 | 0.00 | 54 | 1018.2 |
| 20260902145505 | 89 | 312 | 3.0 | 7.0 | 0.00 | 0.00 | 0.00 | 54 | 1018.3 |
| 20260902144959 | 89 | 65 | 2.0 | 7.0 | 0.00 | 0.00 | 0.00 | 55 | 1018.4 |
| 20260902144455 | 88 | 303 | 2.0 | 7.0 | 0.00 | 0.00 | 0.00 | 56 | 1018.3 |
| 20260902143950 | 88 | 274 | 2.0 | 6.0 | 0.00 | 0.00 | 0.00 | 56 | 1018.2 |
| 20260902143446 | 88 | 78 | 1.0 | 7.0 | 0.00 | 0.00 | 0.00 | 56 | 1018.3 |
| 20260902142941 | 87 | 102 | 3.0 | 8.0 | 0.00 | 0.00 | 0.00 | 57 | 1018.3 |
| 20260902142437 | 87 | 232 | 4.0 | 8.0 | 0.00 | 0.00 | 0.00 | 58 | 1018.1 |
| 20260902141932 | 86 | 263 | 2.0 | 13.0 | 0.00 | 0.00 | 0.00 | 59 | 1018.2 |
| 20260902141427 | 86 | 320 | 4.0 | 7.0 | 0.00 | 0.00 | 0.00 | 58 | 1018.1 |
| 20260902140926 | 86 | 31 | 1.0 | 4.0 | 0.00 | 0.00 | 0.00 | 59 | 1018.2 |
| 20260902140421 | 86 | 187 | 1.0 | 6.0 | 0.00 | 0.00 | 0.00 | 59 | 1018.2 |
| 20260902135915 | 86 | 189 | 4.0 | 7.0 | 0.00 | 0.00 | 0.00 | 59 | 1018.4 |
| 20260902135412 | 85 | 36 | 1.0 | 6.0 | 0.00 | 0.00 | 0.00 | 61 | 1018.2 |
| 20260902134910 | 85 | 273 | 3.0 | 6.0 | 0.00 | 0.00 | 0.00 | 61 | 1018.3 |
| 20260902134407 | 84 | 287 | 5.0 | 8.0 | 0.00 | 0.00 | 0.00 | 62 | 1018.1 |
| 20260902133906 | 84 | 262 | 2.0 | 4.0 | 0.00 | 0.00 | 0.00 | 62 | 1018.3 |
| 20260902133401 | 84 | 265 | 1.0 | 2.0 | 0.00 | 0.00 | 0.00 | 62 | 1018.2 |
| 20260902132856 | 83 | 260 | 3.0 | 9.0 | 0.00 | 0.00 | 0.00 | 63 | 1018.3 |
| 20260902132351 | 83 | 145 | 3.0 | 4.0 | 0.00 | 0.00 | 0.00 | 63 | 1018.2 |
| 20260902131847 | 83 | 237 | 1.0 | 7.0 | 0.00 | 0.00 | 0.00 | 64 | 1018.2 |
| 20260902131344 | 82 | 172 | 2.0 | 4.0 | 0.00 | 0.00 | 0.00 | 65 | 1018.2 |
| 20260902130842 | 82 | 274 | 3.0 | 7.0 | 0.00 | 0.00 | 0.00 | 65 | 1018.2 |
| 20260902130338 | 82 | 190 | 3.0 | 4.0 | 0.00 | 0.00 | 0.00 | 65 | 1018.2 |
| 20260902125833 | 82 | 230 | 3.0 | 7.0 | 0.00 | 0.00 | 0.00 | 65 | 1018.2 |
| 20260902125329 | 82 | 342 | 2.0 | 3.0 | 0.00 | 0.00 | 0.00 | 65 | 1017.9 |
| 20260902124825 | 82 | 223 | 1.0 | 6.0 | 0.00 | 0.00 | 0.00 | 65 | 1017.9 |
| 20260902124321 | 82 | 223 | 1.0 | 6.0 | 0.00 | 0.00 | 0.00 | 65 | 1017.9 |
| 20260902123815 | 82 | 242 | 3.0 | 6.0 | 0.00 | 0.00 | 0.00 | 65 | 1017.8 |
| 20260902123312 | 82 | 127 | 1.0 | 8.0 | 0.00 | 0.00 | 0.00 | 66 | 1017.8 |
| 20260902122810 | 82 | 228 | 2.0 | 4.0 | 0.00 | 0.00 | 0.00 | 66 | 1017.8 |
| 20260902122307 | 81 | 211 | 2.0 | 4.0 | 0.00 | 0.00 | 0.00 | 67 | 1017.7 |
| 20260902121806 | 81 | 276 | 0.0 | 2.0 | 0.00 | 0.00 | 0.00 | 67 | 1017.8 |
| 20260902121301 | 81 | 101 | 1.0 | 6.0 | 0.00 | 0.00 | 0.00 | 67 | 1017.6 |
| 20260902120757 | 80 | 62 | 1.0 | 3.0 | 0.00 | 0.00 | 0.00 | 67 | 1017.6 |
| 20260902120253 | 80 | 309 | 1.0 | 2.0 | 0.00 | 0.00 | 0.00 | 68 | 1017.6 |
| 20260902115748 | 80 | 45 | 0.0 | 1.0 | 0.00 | 0.00 | 0.00 | 67 | 1017.5 |
| 20260902115244 | 80 | 46 | 0.0 | 2.0 | 0.00 | 0.00 | 0.00 | 67 | 1017.4 |
| 20260902114740 | 80 | 46 | 0.0 | 2.0 | 0.00 | 0.00 | 0.00 | 67 | 1017.3 |
| 20260902114235 | 80 | 81 | 0.0 | 1.0 | 0.00 | 0.00 | 0.00 | 66 | 1017.4 |
| 20260902113729 | 80 | 182 | 0.0 | 1.0 | 0.00 | 0.00 | 0.00 | 66 | 1017.3 |
| 20260902113225 | 80 | 182 | 0.0 | 1.0 | 0.00 | 0.00 | 0.00 | 66 | 1017.3 |
| 20260902112719 | 80 | 129 | 0.0 | 0.0 | 0.00 | 0.00 | 0.00 | 66 | 1017.3 |
| 20260902112216 | 80 | 129 | 0.0 | 2.0 | 0.00 | 0.00 | 0.00 | 66 | 1017.2 |
| 20260902111711 | 81 | 102 | 0.0 | 0.0 | 0.00 | 0.00 | 0.00 | 65 | 1017.2 |
| 20260902111207 | 81 | 102 | 0.0 | 0.0 | 0.00 | 0.00 | 0.00 | 65 | 1017.2 |
| 20260902110703 | 81 | 102 | 0.0 | 1.0 | 0.00 | 0.00 | 0.00 | 64 | 1017.1 |
| 20260902110159 | 82 | 264 | 0.0 | 0.0 | 0.00 | 0.00 | 0.00 | 64 | 1017.1 |
| 20260902105658 | 81 | 223 | 0.0 | 0.0 | 0.00 | 0.00 | 0.00 | 64 | 1017.1 |
| 20260902105154 | 81 | 298 | 0.0 | 1.0 | 0.00 | 0.00 | 0.00 | 64 | 1017.0 |
| 20260902104649 | 82 | 135 | 0.0 | 1.0 | 0.00 | 0.00 | 0.00 | 63 | 1017.1 |
| 20260902104144 | 82 | 7 | 0.0 | 1.0 | 0.00 | 0.00 | 0.00 | 63 | 1017.3 |
| 20260902103643 | 82 | 7 | 0.0 | 2.0 | 0.00 | 0.00 | 0.00 | 63 | 1017.2 |
| 20260902103139 | 82 | 58 | 0.0 | 1.0 | 0.00 | 0.00 | 0.00 | 63 | 1017.2 |
| 20260902102635 | 82 | 53 | 0.0 | 2.0 | 0.00 | 0.00 | 0.00 | 63 | 1017.1 |
| 20260902102132 | 82 | 53 | 1.0 | 1.0 | 0.00 | 0.00 | 0.00 | 62 | 1017.1 |
| 20260902101627 | 82 | 53 | 0.0 | 0.0 | 0.00 | 0.00 | 0.00 | 62 | 1017.1 |
| 20260902101126 | 83 | 99 | 1.0 | 3.0 | 0.00 | 0.00 | 0.00 | 61 | 1017.0 |
| 20260902100621 | 83 | 270 | 0.0 | 2.0 | 0.00 | 0.00 | 0.00 | 61 | 1016.9 |
| 20260902100116 | 83 | 298 | 0.0 | 1.0 | 0.00 | 0.00 | 0.00 | 62 | 1017.0 |
| 20260902095615 | 83 | 246 | 1.0 | 2.0 | 0.00 | 0.00 | 0.00 | 61 | 1017.0 |
| 20260902095109 | 83 | 312 | 1.0 | 6.0 | 0.00 | 0.00 | 0.00 | 61 | 1016.9 |
| 20260902094604 | 83 | 103 | 1.0 | 3.0 | 0.00 | 0.00 | 0.00 | 61 | 1016.9 |
| 20260902094101 | 83 | 244 | 1.0 | 4.0 | 0.00 | 0.00 | 0.00 | 61 | 1017.0 |
| 20260902093559 | 83 | 279 | 0.0 | 2.0 | 0.00 | 0.00 | 0.00 | 61 | 1016.9 |
| 20260902093054 | 83 | 283 | 0.0 | 3.0 | 0.00 | 0.00 | 0.00 | 61 | 1016.9 |
| 20260902092549 | 83 | 283 | 0.0 | 3.0 | 0.00 | 0.00 | 0.00 | 61 | 1016.9 |
| 20260902092044 | 83 | 246 | 0.0 | 1.0 | 0.00 | 0.00 | 0.00 | 60 | 1016.9 |
| 20260902091534 | 83 | 307 | 2.0 | 3.0 | 0.00 | 0.00 | 0.00 | 60 | 1017.0 |
| 20260902091030 | 83 | 70 | 2.0 | 3.0 | 0.00 | 0.00 | 0.00 | 60 | 1017.1 |
| 20260902090526 | 84 | 18 | 1.0 | 2.0 | 0.00 | 0.00 | 0.00 | 60 | 1016.8 |
| 20260902090024 | 84 | 24 | 2.0 | 6.0 | 0.00 | 0.00 | 0.00 | 59 | 1016.9 |
| 20260902085518 | 84 | 57 | 3.0 | 4.0 | 0.00 | 0.00 | 0.00 | 59 | 1016.7 |
| 20260902085014 | 84 | 165 | 3.0 | 4.0 | 0.00 | 0.00 | 0.00 | 59 | 1016.8 |
| 20260902084510 | 84 | 327 | 0.0 | 2.0 | 0.00 | 0.00 | 0.00 | 59 | 1016.7 |
| 20260902084006 | 84 | 231 | 2.0 | 4.0 | 0.00 | 0.00 | 0.00 | 58 | 1016.9 |
| 20260902083501 | 84 | 242 | 2.0 | 3.0 | 0.00 | 0.00 | 0.00 | 58 | 1017.1 |
| 20260902082955 | 84 | 285 | 2.0 | 4.0 | 0.00 | 0.00 | 0.00 | 57 | 1016.8 |
| 20260902082450 | 84 | 285 | 2.0 | 6.0 | 0.00 | 0.00 | 0.00 | 57 | 1016.9 |
| 20260902081946 | 84 | 343 | 1.0 | 3.0 | 0.00 | 0.00 | 0.00 | 57 | 1016.8 |
| 20260902081443 | 84 | 90 | 1.0 | 3.0 | 0.00 | 0.00 | 0.00 | 57 | 1016.8 |
| 20260902080938 | 84 | 154 | 2.0 | 3.0 | 0.00 | 0.00 | 0.00 | 57 | 1016.9 |
| 20260902080433 | 83 | 40 | 2.0 | 3.0 | 0.00 | 0.00 | 0.00 | 57 | 1016.8 |
| 20260902075933 | 84 | 53 | 1.0 | 2.0 | 0.00 | 0.00 | 0.00 | 56 | 1016.8 |
| 20260902075429 | 84 | 341 | 1.0 | 2.0 | 0.00 | 0.00 | 0.00 | 56 | 1016.9 |
| 20260902074924 | 84 | 10 | 0.0 | 2.0 | 0.00 | 0.00 | 0.00 | 55 | 1016.7 |
| 20260902074420 | 85 | 331 | 0.0 | 2.0 | 0.00 | 0.00 | 0.00 | 55 | 1016.8 |
| 20260902073914 | 84 | 149 | 0.0 | 4.0 | 0.00 | 0.00 | 0.00 | 55 | 1016.9 |
| 20260902073411 | 84 | 54 | 0.0 | 3.0 | 0.00 | 0.00 | 0.00 | 55 | 1016.8 |
| 20260902072906 | 84 | 280 | 1.0 | 2.0 | 0.00 | 0.00 | 0.00 | 55 | 1016.8 |
| 20260902072403 | 84 | 316 | 1.0 | 3.0 | 0.00 | 0.00 | 0.00 | 55 | 1016.7 |
| 20260902071859 | 85 | 256 | 0.0 | 3.0 | 0.00 | 0.00 | 0.00 | 55 | 1016.7 |
| 20260902071358 | 85 | 334 | 0.0 | 1.0 | 0.00 | 0.00 | 0.00 | 54 | 1016.8 |
| 20260902070855 | 85 | 51 | 0.0 | 6.0 | 0.00 | 0.00 | 0.00 | 54 | 1016.7 |
| 20260902070350 | 85 | 166 | 2.0 | 3.0 | 0.00 | 0.00 | 0.00 | 54 | 1017.0 |
| 20260902065848 | 85 | 11 | 1.0 | 2.0 | 0.00 | 0.00 | 0.00 | 54 | 1016.9 |
| 20260902065343 | 85 | 347 | 0.0 | 2.0 | 0.00 | 0.00 | 0.00 | 54 | 1016.9 |
| 20260902064833 | 85 | 155 | 1.0 | 1.0 | 0.00 | 0.00 | 0.00 | 54 | 1016.9 |
| 20260902064330 | 85 | 324 | 0.0 | 1.0 | 0.00 | 0.00 | 0.00 | 53 | 1016.8 |
| 20260902063824 | 85 | 244 | 1.0 | 2.0 | 0.00 | 0.00 | 0.00 | 53 | 1016.9 |
| 20260902063318 | 85 | 237 | 3.0 | 3.0 | 0.00 | 0.00 | 0.00 | 53 | 1016.8 |
| 20260902062813 | 85 | 172 | 0.0 | 1.0 | 0.00 | 0.00 | 0.00 | 53 | 1016.8 |
| 20260902062308 | 86 | 54 | 0.0 | 2.0 | 0.00 | 0.00 | 0.00 | 53 | 1016.8 |
| 20260902061808 | 86 | 329 | 1.0 | 2.0 | 0.00 | 0.00 | 0.00 | 53 | 1016.9 |
| 20260902061303 | 85 | 119 | 1.0 | 2.0 | 0.00 | 0.00 | 0.00 | 53 | 1017.0 |
| 20260902060800 | 85 | 125 | 0.0 | 2.0 | 0.00 | 0.00 | 0.00 | 53 | 1016.8 |
| 20260902060255 | 86 | 134 | 0.0 | 1.0 | 0.00 | 0.00 | 0.00 | 53 | 1017.0 |
| 20260902055750 | 86 | 134 | 1.0 | 2.0 | 0.00 | 0.00 | 0.00 | 52 | 1016.9 |
| 20260902055247 | 86 | 99 | 0.0 | 1.0 | 0.00 | 0.00 | 0.00 | 52 | 1016.7 |
| 20260902054747 | 86 | 99 | 1.0 | 1.0 | 0.00 | 0.00 | 0.00 | 52 | 1016.7 |
| 20260902054243 | 86 | 99 | 1.0 | 1.0 | 0.00 | 0.00 | 0.00 | 51 | 1016.9 |
| 20260902053737 | 87 | 98 | 0.0 | 2.0 | 0.00 | 0.00 | 0.00 | 51 | 1016.7 |
| 20260902053236 | 87 | 98 | 0.0 | 1.0 | 0.00 | 0.00 | 0.00 | 50 | 1016.7 |
| 20260902052731 | 87 | 98 | 0.0 | 4.0 | 0.00 | 0.00 | 0.00 | 50 | 1016.5 |
| 20260902052227 | 87 | 309 | 1.0 | 2.0 | 0.00 | 0.00 | 0.00 | 49 | 1016.4 |
| 20260902051726 | 87 | 172 | 1.0 | 1.0 | 0.00 | 0.00 | 0.00 | 50 | 1016.5 |
| 20260902051220 | 87 | 136 | 0.0 | 2.0 | 0.00 | 0.00 | 0.00 | 49 | 1016.4 |
| 20260902050715 | 87 | 159 | 0.0 | 1.0 | 0.00 | 0.00 | 0.00 | 49 | 1016.4 |
| 20260902050210 | 87 | 283 | 2.0 | 3.0 | 0.00 | 0.00 | 0.00 | 49 | 1016.5 |
| 20260902045705 | 88 | 117 | 1.0 | 1.0 | 0.00 | 0.00 | 0.00 | 48 | 1016.5 |
| 20260902045201 | 88 | 257 | 2.0 | 3.0 | 0.00 | 0.00 | 0.00 | 48 | 1016.5 |
| 20260902044656 | 88 | 18 | 1.0 | 3.0 | 0.00 | 0.00 | 0.00 | 48 | 1016.5 |
| 20260902044152 | 87 | 274 | 2.0 | 3.0 | 0.00 | 0.00 | 0.00 | 48 | 1016.5 |
| 20260902043646 | 88 | 2 | 0.0 | 1.0 | 0.00 | 0.00 | 0.00 | 48 | 1016.8 |
| 20260902043142 | 88 | 137 | 2.0 | 4.0 | 0.00 | 0.00 | 0.00 | 48 | 1016.9 |
| 20260902042636 | 88 | 223 | 2.0 | 3.0 | 0.00 | 0.00 | 0.00 | 48 | 1016.8 |
| 20260902042131 | 88 | 172 | 0.0 | 3.0 | 0.00 | 0.00 | 0.00 | 48 | 1016.6 |
| 20260902041631 | 88 | 291 | 2.0 | 3.0 | 0.00 | 0.00 | 0.00 | 48 | 1016.7 |
| 20260902041126 | 88 | 264 | 0.0 | 1.0 | 0.00 | 0.00 | 0.00 | 49 | 1016.7 |
| 20260902040625 | 88 | 181 | 1.0 | 2.0 | 0.00 | 0.00 | 0.00 | 48 | 1016.7 |
| 20260902040120 | 88 | 155 | 2.0 | 2.0 | 0.00 | 0.00 | 0.00 | 48 | 1016.7 |
| 20260902035618 | 88 | 314 | 0.0 | 2.0 | 0.00 | 0.00 | 0.00 | 48 | 1016.8 |
| 20260902035114 | 88 | 151 | 1.0 | 2.0 | 0.00 | 0.00 | 0.00 | 48 | 1016.7 |
| 20260902034613 | 88 | 156 | 0.0 | 1.0 | 0.00 | 0.00 | 0.00 | 48 | 1016.6 |
| 20260902034107 | 88 | 207 | 1.0 | 2.0 | 0.00 | 0.00 | 0.00 | 48 | 1016.7 |
| 20260902033606 | 89 | 51 | 1.0 | 1.0 | 0.00 | 0.00 | 0.00 | 47 | 1016.6 |
| 20260902033101 | 89 | 249 | 0.0 | 2.0 | 0.00 | 0.00 | 0.00 | 47 | 1016.5 |
| 20260902032600 | 89 | 350 | 0.0 | 3.0 | 0.00 | 0.00 | 0.00 | 47 | 1016.4 |
| 20260902032055 | 89 | 185 | 1.0 | 2.0 | 0.00 | 0.00 | 0.00 | 46 | 1016.5 |
| 20260902031549 | 89 | 21 | 0.0 | 1.0 | 0.00 | 0.00 | 0.00 | 47 | 1016.2 |
| 20260902031046 | 89 | 132 | 0.0 | 2.0 | 0.00 | 0.00 | 0.00 | 46 | 1016.3 |
| 20260902030545 | 89 | 116 | 0.0 | 2.0 | 0.00 | 0.00 | 0.00 | 46 | 1015.9 |
| 20260902030040 | 90 | 108 | 0.0 | 1.0 | 0.00 | 0.00 | 0.00 | 46 | 1016.3 |
| 20260902025540 | 90 | 107 | 1.0 | 2.0 | 0.00 | 0.00 | 0.00 | 45 | 1016.1 |
| 20260902025035 | 90 | 107 | 0.0 | 1.0 | 0.00 | 0.00 | 0.00 | 45 | 1015.8 |
| 20260902024531 | 90 | 279 | 0.0 | 3.0 | 0.00 | 0.00 | 0.00 | 45 | 1015.8 |
| 20260902024030 | 90 | 186 | 1.0 | 1.0 | 0.00 | 0.00 | 0.00 | 44 | 1015.7 |
| 20260902023526 | 91 | 187 | 0.0 | 2.0 | 0.00 | 0.00 | 0.00 | 44 | 1015.5 |
| 20260902023021 | 91 | 331 | 0.0 | 1.0 | 0.00 | 0.00 | 0.00 | 44 | 1015.6 |
| 20260902022515 | 91 | 296 | 0.0 | 2.0 | 0.00 | 0.00 | 0.00 | 43 | 1015.5 |
| 20260902022011 | 91 | 339 | 0.0 | 0.0 | 0.00 | 0.00 | 0.00 | 43 | 1015.4 |
| 20260902021501 | 92 | 177 | 0.0 | 1.0 | 0.00 | 0.00 | 0.00 | 42 | 1015.2 |
| 20260902020956 | 92 | 200 | 0.0 | 2.0 | 0.00 | 0.00 | 0.00 | 42 | 1015.3 |
| 20260902020452 | 92 | 246 | 1.0 | 2.0 | 0.00 | 0.00 | 0.00 | 42 | 1015.3 |
| 20260902015948 | 92 | 24 | 0.0 | 1.0 | 0.00 | 0.00 | 0.00 | 41 | 1015.3 |
| 20260902015443 | 92 | 63 | 1.0 | 2.0 | 0.00 | 0.00 | 0.00 | 41 | 1015.0 |
| 20260902014938 | 92 | 44 | 0.0 | 0.0 | 0.00 | 0.00 | 0.00 | 41 | 1015.2 |
| 20260902014435 | 92 | 101 | 1.0 | 2.0 | 0.00 | 0.00 | 0.00 | 40 | 1015.2 |
| 20260902013934 | 93 | 9 | 0.0 | 1.0 | 0.00 | 0.00 | 0.00 | 40 | 1015.2 |
| 20260902013430 | 93 | 0 | 0.0 | 1.0 | 0.00 | 0.00 | 0.00 | 39 | 1015.0 |
| 20260902012925 | 93 | 19 | 0.0 | 2.0 | 0.00 | 0.00 | 0.00 | 39 | 1014.9 |
| 20260902012420 | 94 | 37 | 0.0 | 1.0 | 0.00 | 0.00 | 0.00 | 38 | 1014.9 |
| 20260902011916 | 94 | 64 | 1.0 | 1.0 | 0.00 | 0.00 | 0.00 | 38 | 1014.8 |
| 20260902011410 | 94 | 354 | 0.0 | 2.0 | 0.00 | 0.00 | 0.00 | 37 | 1014.8 |
| 20260902010910 | 94 | 298 | 0.0 | 4.0 | 0.00 | 0.00 | 0.00 | 36 | 1015.0 |
| 20260902010405 | 95 | 98 | 0.0 | 3.0 | 0.00 | 0.00 | 0.00 | 36 | 1014.9 |
| 20260902005905 | 95 | 287 | 0.0 | 4.0 | 0.00 | 0.00 | 0.00 | 35 | 1014.8 |
| 20260902005404 | 95 | 63 | 0.0 | 2.0 | 0.00 | 0.00 | 0.00 | 35 | 1014.8 |
| 20260902004900 | 96 | 47 | 2.0 | 3.0 | 0.00 | 0.00 | 0.00 | 35 | 1014.8 |
| 20260902004359 | 96 | 335 | 0.0 | 1.0 | 0.00 | 0.00 | 0.00 | 34 | 1014.6 |
| 20260902003849 | 96 | 72 | 2.0 | 4.0 | 0.00 | 0.00 | 0.00 | 34 | 1014.7 |
| 20260902003344 | 96 | 335 | 0.0 | 0.0 | 0.00 | 0.00 | 0.00 | 35 | 1014.8 |
| 20260902002840 | 96 | 284 | 1.0 | 3.0 | 0.00 | 0.00 | 0.00 | 34 | 1014.9 |
| 20260902002339 | 96 | 246 | 1.0 | 3.0 | 0.00 | 0.00 | 0.00 | 34 | 1014.8 |
| 20260902001835 | 97 | 64 | 0.0 | 1.0 | 0.00 | 0.00 | 0.00 | 34 | 1015.0 |
| 20260902001329 | 97 | 62 | 1.0 | 2.0 | 0.00 | 0.00 | 0.00 | 34 | 1015.1 |
| 20260902000824 | 97 | 322 | 0.0 | 7.0 | 0.00 | 0.00 | 0.00 | 33 | 1015.1 |
| 20260902000322 | 98 | 337 | 1.0 | 4.0 | 0.00 | 0.00 | 0.00 | 33 | 1015.0 |
| 20260901235814 | 98 | 292 | 2.0 | 6.0 | 0.00 | 0.00 | 0.00 | 33 | 1014.8 |
| 20260901235308 | 98 | 304 | 3.0 | 7.0 | 0.00 | 0.00 | 0.00 | 32 | 1014.7 |
| 20260901234808 | 98 | 268 | 1.0 | 3.0 | 0.00 | 0.00 | 0.00 | 32 | 1015.1 |
| 20260901234303 | 98 | 326 | 3.0 | 4.0 | 0.00 | 0.00 | 0.00 | 32 | 1015.2 |
| 20260901233758 | 98 | 255 | 2.0 | 4.0 | 0.00 | 0.00 | 0.00 | 33 | 1014.9 |
| 20260901233253 | 98 | 276 | 1.0 | 6.0 | 0.00 | 0.00 | 0.00 | 32 | 1015.1 |